{"data":{"norad_id":41794,"epoch":"2026-09-19T08:37:10.897824Z","epoch_age_seconds":124247,"freshness":"FRESH","line1":"1 41794U 16060B   26262.35915391 -.00000248  00000+0  00000+0 0  9995","line2":"2 41794   0.0121 227.9478 0001575 295.8522 108.5782  1.00271891 36460","mean_motion":1.00271891,"eccentricity":0.0001575,"inclination_deg":0.0121,"raan_deg":227.9478,"arg_perigee_deg":295.8522,"mean_anomaly_deg":108.5782,"bstar":0,"rev_number":3646,"period_min":1436.0953858943,"perigee_km":35779.924304965,"apogee_km":35793.206186173,"semimajor_km":42164.702245569,"source":"CELESTRAK","updated_at":"2026-09-20T09:00:35.248306Z"}}